CAPE
0 0 0 0 0 0 0 0 0 0 0 0 0 0 0 0 0 0 0 0 0 0 0 0 0 0 0 0 0 0 0 0 0 0 0 0 10 152 157 180 23 3 48 0 161
0 0 0 0 0 0 0 0 0 0 0 0 0 0 0 0 0 0 0 0 0 0 0 0 0 0 0 0 0 0 0 0 0 0 0 0 0 35 241 281 216 65 5 87 87
0 0 0 0 0 0 0 0 0 0 0 0 0 0 0 0 0 0 0 0 0 0 0 0 0 0 0 0 0 0 0 0 0 0 0 0 0 0 3 63 206 279 135 209 138
0 0 0 0 0 0 0 0 0 0 0 0 0 0 0 0 0 0 0 0 0 0 0 0 0 0 0 0 0 0 0 0 0 0 0 0 0 0 0 1 254 296 205 253 186
0 0 0 0 0 0 0 0 0 0 0 0 0 0 0 0 0 0 0 0 0 0 0 0 0 0 0 0 0 0 0 0 0 0 0 0 0 0 0 166 260 109 154 231 159
0 0 0 0 0 0 0 0 0 0 0 0 0 0 0 0 0 0 0 0 0 0 0 0 0 0 0 0 0 0 0 0 0 0 0 0 0 0 38 172 165 102 136 170 140
0 0 0 0 0 0 0 0 0 0 0 0 0 0 0 0 0 0 0 0 0 0 0 0 0 0 0 0 0 0 0 0 0 0 0 0 16 0 120 225 213 146 95 96 118
5 0 0 0 0 0 0 0 0 0 0 0 0 0 0 0 0 0 0 0 0 0 0 0 0 0 0 0 0 0 0 0 0 0 0 0 0 8 261 341 261 126 43 14 58
5 5 0 0 0 0 0 0 0 0 0 0 0 0 0 0 0 0 0 0 0 0 0 0 0 0 0 0 0 0 0 0 0 0 0 0 0 0 314 320 314 211 79 19 16
0 10 2 0 0 0 0 0 0 0 0 0 0 0 0 0 0 0 0 0 0 0 0 0 0 0 0 0 0 0 0 0 0 0 0 0 0 0 93 439 374 357 211 107 79
0 2 9 0 0 0 0 0 0 0 0 0 0 0 0 0 0 0 0 0 0 0 0 0 0 0 0 0 0 0 0 0 0 0 0 0 0 0 0 318 641 490 387 283 261
4 0 11 1 0 0 0 0 0 0 0 0 0 0 0 0 0 0 0 0 0 0 0 0 0 0 0 0 0 0 0 0 0 0 0 0 0 0 0 0 91 520 623 543 516
2 0 8 0 0 0 0 0 0 0 0 0 0 0 0 0 0 0 0 0 0 0 0 0 0 0 0 0 0 0 0 0 0 0 0 0 0 0 0 0 181 329 282 247 363
0 0 16 0 0 0 0 0 0 0 0 0 0 0 0 0 0 0 0 0 0 0 0 0 0 0 0 0 0 0 0 0 0 0 0 0 0 0 13 107 644 568 516 585 507
1 0 4 0 0 0 0 0 0 0 0 0 0 0 0 0 0 0 0 0 0 0 0 0 0 0 0 0 0 0 0 0 0 0 0 0 0 124 367 665 726 362 105 142 561
5 0 3 0 0 0 0 0 0 0 0 0 0 0 0 0 0 0 0 0 0 0 0 0 0 0 0 0 0 0 0 0 0 0 0 0 0 565 809 688 620 56 0 0 0
3 0 7 0 0 0 0 0 0 0 0 0 0 0 0 0 0 0 0 0 0 0 0 0 0 0 0 0 0 0 0 0 0 0 0 0 21 708 664 563 110 50 0 0 0
2 0 0 0 0 0 0 0 0 0 0 0 0 0 0 0 0 0 0 0 0 0 0 0 0 0 0 0 0 0 0 0 0 0 0 0 119 1184 796 337 396 194 0 1 256
2 3 2 4 0 0 0 0 0 0 0 0 0 0 0 0 0 0 0 0 0 0 0 0 0 0 0 0 0 0 0 0 0 0 0 121 380 92 472 315 350 0 3 335 670
6 0 0 0 0 0 0 0 0 0 0 0 0 0 0 0 0 0 0 0 0 0 0 0 0 0 0 0 0 0 0 0 0 0 0 4 145 331 301 506 251 182 451 791 298
2 0 0 0 0 0 0 0 0 0 0 0 0 0 0 0 0 0 0 0 0 0 0 0 0 0 0 0 0 0 0 0 0 0 0 0 40 193 561 610 549 803 591 576 546
13 10 0 0 9 0 0 0 0 0 0 0 0 0 0 0 0 0 0 0 0 0 0 0 0 0 0 0 0 0 0 0 0 0 0 0 218 647 547 725 608 713 732 611 548
33 23 0 0 7 18 3 0 0 0 0 0 0 0 0 0 0 0 0 0 0 0 0 0 0 0 0 0 0 0 0 0 0 0 50 0 639 655 798 1130 793 646 569 477 490
24 15 17 8 0 4 27 4 0 0 0 0 0 0 0 0 0 0 0 0 0 0 5 0 0 0 0 17 33 4 0 0 12 0 6 69 798 1140 954 1191 1126 413 275 178 210
20 11 5 2 8 5 13 9 0 0 0 0 0 0 0 0 0 0 0 0 0 0 0 62 0 0 4 0 158 179 0 0 28 18 0 217 882 1164 763 732 828 649 260 113 77
37 5 23 29 17 9 11 3 0 0 0 0 0 0 0 0 0 0 0 0 0 0 0 0 6 43 346 378 374 413 241 236 242 533 785 804 608 765 772 417 260 242 166 62 80
14 53 18 24 27 1 0 0 0 0 0 0 0 0 0 0 0 0 0 0 0 0 0 1 5 63 358 478 304 362 525 537 502 369 925 981 803 607 295 237 161 29 4 3 6
CIN
-0 -0 -0 -0 -0 -0 -0 -0 -0 -0 -0 -0 -0 -0 -0 -0 -0 -0 -0 -0 -0 -0 -0 -0 -0 -0 -0 -0 -0 -0 -0 -0 -0 -0 -0 -0 -109 -213 -236 -231 -416 -155 -289 -0 -358
-0 -0 -0 -0 -0 -0 -0 -0 -0 -0 -0 -0 -0 -0 -0 -0 -0 -0 -0 -0 -0 -0 -0 -0 -0 -0 -0 -0 -0 -0 -0 -0 -0 -0 -0 -0 -0 -87 -159 -152 -239 -416 -203 -493 -495
-0 -0 -0 -0 -0 -0 -0 -0 -0 -0 -0 -0 -0 -0 -0 -0 -0 -0 -0 -0 -0 -0 -0 -0 -0 -0 -0 -0 -0 -0 -0 -0 -0 -0 -0 -0 -0 -0 -28 -240 -181 -222 -479 -489 -483
-0 -0 -0 -0 -0 -0 -0 -0 -0 -0 -0 -0 -0 -0 -0 -0 -0 -0 -0 -0 -0 -0 -0 -0 -0 -0 -0 -0 -0 -0 -0 -0 -0 -0 -0 -0 -0 -0 -0 -21 -180 -263 -453 -488 -504
-0 -0 -0 -0 -0 -0 -0 -0 -0 -0 -0 -0 -0 -0 -0 -0 -0 -0 -0 -0 -0 -0 -0 -0 -0 -0 -0 -0 -0 -0 -0 -0 -0 -0 -0 -0 -0 -0 -0 -307 -273 -482 -543 -498 -515
-0 -0 -0 -0 -0 -0 -0 -0 -0 -0 -0 -0 -0 -0 -0 -0 -0 -0 -0 -0 -0 -0 -0 -0 -0 -0 -0 -0 -0 -0 -0 -0 -0 -0 -0 -0 -0 -0 -352 -396 -401 -502 -493 -504 -529
-0 -0 -0 -0 -0 -0 -0 -0 -0 -0 -0 -0 -0 -0 -0 -0 -0 -0 -0 -0 -0 -0 -0 -0 -0 -0 -0 -0 -0 -0 -0 -0 -0 -0 -0 -0 -187 -0 -336 -342 -346 -399 -481 -526 -542
-11 -6 -0 -0 -0 -0 -0 -0 -0 -0 -0 -0 -0 -0 -0 -0 -0 -0 -0 -0 -0 -0 -0 -0 -0 -0 -0 -0 -0 -0 -0 -0 -0 -0 -0 -0 -0 -244 -332 -260 -275 -402 -500 -531 -509
-4 -10 -13 -0 -0 -0 -0 -0 -0 -0 -0 -0 -0 -0 -0 -0 -0 -0 -0 -0 -0 -0 -0 -0 -0 -0 -0 -0 -0 -0 -0 -0 -0 -0 -0 -0 -0 -0 -350 -255 -202 -319 -407 -446 -463
-0 -11 -9 -0 -0 -0 -0 -0 -0 -0 -0 -0 -0 -0 -0 -0 -0 -0 -0 -0 -0 -0 -0 -0 -0 -0 -0 -0 -0 -0 -0 -0 -0 -0 -0 -0 -0 -0 -142 -275 -178 -227 -320 -361 -406
-0 -3 -11 -1 -0 -0 -0 -0 -0 -0 -0 -0 -0 -0 -0 -0 -0 -0 -0 -0 -0 -0 -0 -0 -0 -0 -0 -0 -0 -0 -0 -0 -0 -0 -0 -0 -0 -0 -0 -297 -239 -224 -298 -290 -321
-0 -0 -11 -25 -0 -0 -0 -0 -0 -0 -0 -0 -0 -0 -0 -0 -0 -0 -0 -0 -0 -0 -0 -0 -0 -0 -0 -0 -0 -0 -0 -0 -0 -0 -0 -0 -0 -0 -0 -0 -210 -287 -301 -307 -237
-0 -0 -8 -12 -0 -0 -0 -0 -0 -0 -0 -0 -0 -0 -0 -0 -0 -0 -0 -0 -0 -0 -0 -0 -0 -0 -0 -0 -0 -0 -0 -0 -0 -0 -0 -0 -0 -0 -0 -111 -385 -470 -502 -432 -358
-0 -0 -10 -1 -0 -0 -0 -0 -0 -0 -0 -0 -0 -0 -0 -0 -0 -0 -0 -0 -0 -0 -0 -0 -0 -0 -0 -0 -0 -0 -0 -0 -0 -0 -0 -0 -0 -0 -255 -197 -326 -429 -523 -548 -547
-0 -0 -9 -0 -0 -0 -0 -0 -0 -0 -0 -0 -0 -0 -0 -0 -0 -0 -0 -0 -0 -0 -0 -0 -0 -0 -0 -0 -0 -0 -0 -0 -0 -0 -0 -0 -0 -129 -216 -169 -298 -499 -672 -739 -625
-0 -0 -1 -0 -0 -0 -0 -0 -0 -0 -0 -0 -0 -0 -0 -0 -0 -0 -0 -0 -0 -0 -0 -0 -0 -0 -0 -0 -0 -0 -0 -0 -0 -0 -0 -0 -0 -36 -173 -233 -292 -531 -326 -0 -0
-1 -0 -0 -0 -0 -0 -0 -0 -0 -0 -0 -0 -0 -0 -0 -0 -0 -0 -0 -0 -0 -0 -0 -0 -0 -0 -0 -0 -0 -0 -0 -0 -0 -0 -0 -0 -33 -52 -131 -216 -404 -511 -257 -0 -0
-5 -0 -0 -0 -0 -0 -0 -0 -0 -0 -0 -0 -0 -0 -0 -0 -0 -0 -0 -0 -0 -0 -0 -0 -0 -0 -0 -0 -0 -0 -0 -0 -0 -0 -0 -0 -52 -0 -95 -228 -250 -377 -0 -356 -521
-3 -0 -0 -0 -3 -0 -0 -0 -0 -0 -0 -0 -0 -0 -0 -0 -0 -0 -0 -0 -0 -0 -0 -0 -0 -0 -0 -0 -0 -0 -0 -0 -0 -0 -0 -60 -61 -158 -114 -159 -205 -0 -69 -375 -305
-1 -0 -0 -0 -0 -0 -0 -0 -0 -0 -0 -0 -0 -0 -0 -0 -0 -0 -0 -0 -0 -0 -0 -0 -0 -0 -0 -0 -0 -0 -0 -0 -0 -0 -0 -20 -57 -19 -76 -95 -190 -259 -254 -209 -354
-3 -0 -0 -0 -0 -0 -0 -0 -0 -0 -0 -0 -0 -0 -0 -0 -0 -0 -0 -0 -0 -0 -0 -0 -0 -0 -0 -0 -0 -0 -0 -0 -0 -0 -0 -0 -30 -106 -87 -133 -177 -158 -217 -231 -240
-5 -0 -0 -0 -0 -0 -1 -0 -0 -0 -0 -0 -0 -0 -0 -0 -0 -0 -0 -0 -0 -0 -0 -0 -0 -0 -0 -0 -0 -0 -0 -0 -0 -0 -0 -0 -34 -104 -141 -130 -176 -152 -158 -189 -210
-0 -0 -1 -0 -0 -0 -0 -0 -0 -0 -0 -0 -0 -0 -0 -0 -0 -0 -0 -0 -0 -0 -0 -0 -0 -0 -0 -0 -0 -0 -0 -0 -0 -0 -66 -0 -26 -108 -87 -50 -96 -128 -155 -192 -200
-2 -0 -0 -12 -3 -4 -0 -0 -0 -0 -0 -0 -0 -0 -0 -0 -0 -0 -0 -0 -0 -0 -175 -0 -0 -0 -0 -20 -86 -60 -0 -0 -57 -3 -47 -29 -111 -44 -54 -18 -23 -159 -216 -270 -256
-5 -0 -0 -0 -0 -9 -0 -8 -0 -0 -0 -0 -0 -0 -0 -0 -0 -0 -0 -0 -0 -0 -0 -58 -0 -0 -107 -0 -97 -125 -0 -0 -59 -116 -0 -64 -80 -70 -86 -87 -72 -85 -188 -259 -278
-0 -0 -0 -0 -3 -0 -1 -0 -0 -0 -0 -0 -0 -0 -0 -0 -0 -0 -0 -0 -0 -0 -0 -0 -36 -83 -99 -121 -91 -139 -163 -154 -149 -154 -120 -101 -167 -135 -106 -168 -213 -199 -209 -246 -224
-3 -0 -0 -0 -0 -0 -0 -0 -0 -0 -0 -0 -0 -0 -0 -0 -0 -0 -0 -0 -0 -0 -0 -30 -19 -59 -33 -97 -69 -30 -189 -204 -247 -277 -132 -83 -155 -180 -236 -243 -265 -326 -274 -95 -198
Wind_Speed
17 18 17 16 16 15 16 15 16 17 15 18 20 23 20 17 10 2 2 1 1 10 6 10 4 3 2 3 1 1 1 0 1 1 3 4 3 4 4 8 4 7 4 4 20
17 17 18 18 18 18 17 17 17 17 17 17 20 23 21 18 4 3 4 3 4 10 8 11 7 6 3 2 2 2 2 3 1 1 3 3 5 7 7 6 7 6 8 16 19
14 16 16 17 18 19 20 18 17 18 17 18 18 22 21 14 5 3 7 2 10 2 6 4 8 3 3 2 4 4 3 3 3 8 8 5 5 5 9 9 10 13 16 19 18
14 13 15 16 17 18 19 20 19 19 19 17 17 19 22 5 2 3 7 6 6 2 5 7 6 6 5 6 4 4 5 4 4 4 5 8 5 4 14 2 4 10 20 21 20
10 15 15 13 16 17 19 22 22 20 20 17 16 16 9 5 7 1 5 6 5 1 4 5 8 4 7 4 6 5 4 7 7 9 8 6 12 9 7 2 7 15 18 20 19
10 9 12 14 15 16 18 20 22 21 21 18 15 9 3 9 1 2 5 6 4 6 5 5 7 4 3 3 8 4 4 5 5 8 5 5 3 5 6 9 11 16 16 18 19
10 11 10 12 14 16 17 20 21 21 20 18 12 3 2 14 5 1 5 3 5 6 5 4 2 4 4 2 1 1 5 4 6 2 4 2 5 5 3 10 12 12 14 16 18
9 9 11 12 14 16 19 21 24 22 19 13 4 4 8 2 2 3 5 4 3 4 2 3 3 1 2 0 1 2 2 5 3 1 3 4 4 1 7 12 11 12 13 15 18
10 10 11 13 14 16 18 24 26 18 9 3 3 3 8 2 3 1 6 3 7 4 4 2 2 1 3 5 3 1 6 5 4 1 4 5 3 4 4 10 12 14 14 15 16
13 10 11 14 16 17 21 27 18 4 3 4 3 4 6 2 3 3 4 6 4 8 3 3 2 3 3 6 8 5 5 3 4 3 2 3 9 9 4 11 15 14 14 14 16
12 12 9 11 13 14 13 7 4 2 3 5 2 6 6 6 4 2 3 6 5 4 8 4 7 10 7 4 2 3 2 2 3 0 4 3 6 10 7 10 14 11 11 14 18
12 12 10 9 12 13 4 4 5 1 10 11 15 14 15 6 6 3 7 7 6 9 6 5 12 7 5 6 5 4 3 5 4 6 3 3 8 5 7 8 9 10 10 13 14
10 12 11 9 10 2 4 7 4 2 6 10 9 8 8 14 10 9 9 5 8 8 9 9 1 7 10 8 8 4 9 6 5 3 3 5 3 4 6 10 12 11 10 10 13
9 11 10 12 3 3 1 3 7 4 5 6 6 6 8 11 7 14 13 6 4 13 9 5 3 5 6 7 7 7 11 10 8 4 5 3 10 4 9 4 15 15 14 14 14
9 9 10 4 4 3 3 9 7 3 6 2 5 3 6 16 8 12 10 5 14 8 7 7 8 9 8 9 12 5 3 11 8 7 3 5 5 8 9 9 20 17 16 15 14
9 9 7 2 1 4 9 11 3 4 11 2 5 6 8 12 4 8 11 4 3 8 3 9 2 5 6 4 13 11 4 4 3 3 6 4 3 7 8 10 13 15 16 16 15
10 8 4 1 2 4 9 3 5 8 3 3 2 6 7 10 6 11 19 17 12 11 13 6 9 4 4 3 4 8 6 5 6 6 2 3 4 5 4 6 8 12 14 14 13
7 5 3 3 1 5 4 5 12 6 10 3 2 4 9 10 7 10 19 17 9 8 8 11 9 12 11 15 6 10 8 4 6 6 6 2 5 5 2 4 8 9 11 12 13
4 2 3 3 6 1 3 10 10 5 3 5 10 6 7 8 7 10 18 20 16 11 7 10 6 5 7 5 10 7 8 2 7 2 4 4 4 4 2 4 9 11 11 13 13
1 2 4 7 7 2 3 6 6 4 7 4 3 4 2 9 10 12 16 16 14 13 7 7 6 4 5 6 5 4 10 5 1 7 4 5 4 6 4 4 7 11 13 13 13
2 2 3 8 6 3 4 7 8 14 8 5 3 4 4 6 6 14 15 5 19 13 11 6 2 5 5 5 9 5 5 6 5 3 5 7 4 5 3 3 5 9 10 11 11
2 2 2 8 5 3 8 8 6 17 10 4 3 3 3 9 5 7 13 5 15 17 12 7 2 3 2 3 2 2 5 5 5 5 3 1 6 5 4 3 4 6 8 9 9
3 1 3 2 5 8 4 9 10 13 8 3 3 5 5 7 5 2 4 4 13 14 16 9 3 4 5 6 3 2 3 5 7 3 6 7 5 6 6 7 6 6 7 8 9
1 1 1 2 2 3 11 11 12 15 15 11 8 9 7 10 1 6 5 2 9 17 10 11 3 3 5 4 4 5 5 7 4 4 8 4 11 12 11 9 9 8 7 8 8
2 3 3 3 8 10 5 3 14 9 14 7 8 12 3 5 11 4 6 5 5 6 7 7 8 4 3 4 5 5 5 6 4 5 6 9 13 14 11 6 8 8 6 6 6
2 1 2 5 3 15 10 8 14 17 11 17 16 10 5 5 7 19 18 6 4 4 9 2 6 5 4 7 9 10 8 8 9 8 9 14 11 9 8 10 8 6 5 4 5
2 0 0 4 7 8 13 14 15 8 12 18 12 10 15 15 12 15 14 19 13 5 6 7 8 7 6 8 7 7 3 3 5 3 12 8 8 11 9 7 6 3 3 6 8
Wind_Direction
341 340 342 346 346 346 338 342 333 330 330 326 324 321 327 332 317 161 281 296 197 142 107 126 84 91 124 118 112 160 107 64 153 113 51 162 182 172 159 158 191 165 144 121 142
341 337 338 340 338 343 336 339 329 327 327 326 323 319 324 334 316 311 329 293 156 155 130 149 142 143 133 125 127 169 200 190 215 211 313 271 245 176 208 179 177 147 94 133 149
336 335 334 334 336 335 334 331 326 324 325 324 324 317 320 324 290 42 342 139 158 147 126 98 134 157 149 182 168 149 204 191 231 244 284 295 266 210 217 225 207 193 158 158 162
328 334 335 333 331 330 327 324 324 322 323 326 319 315 320 296 348 21 14 147 170 87 114 126 146 163 171 186 169 209 214 204 279 232 275 284 300 245 211 301 160 167 164 161 173
319 327 332 328 327 324 323 321 319 319 318 322 316 318 328 318 258 37 95 119 147 189 167 149 169 152 191 187 156 219 210 202 249 276 269 279 260 263 229 139 135 139 157 173 178
317 319 322 324 322 321 319 316 312 315 313 314 313 314 264 295 120 140 131 139 165 186 169 176 192 192 151 197 210 191 228 271 276 260 260 257 313 187 88 139 143 149 169 178 185
316 321 320 317 317 319 316 313 309 305 303 306 297 218 198 265 121 83 175 189 173 190 180 191 207 211 151 185 240 181 253 252 224 275 280 252 224 232 145 166 157 163 176 181 196
309 316 319 318 320 319 318 312 302 300 301 295 215 179 249 229 137 208 181 215 159 203 247 185 187 265 225 37 63 217 228 255 109 265 183 243 222 356 178 180 175 176 186 190 202
307 315 318 320 323 321 319 306 298 304 297 190 178 223 258 306 253 147 173 181 143 172 247 127 158 21 169 169 180 50 239 217 198 61 176 252 262 38 198 220 203 192 193 197 204
321 309 318 322 327 327 322 300 298 289 151 214 251 258 240 185 300 279 195 181 142 133 166 174 108 199 159 194 213 197 205 216 205 128 58 229 270 297 236 230 236 215 201 205 209
324 317 312 315 319 328 330 332 343 245 350 249 276 279 282 289 264 179 169 169 126 167 179 165 213 212 201 200 144 168 189 256 286 281 299 184 274 294 324 244 252 253 230 223 226
323 314 301 315 317 321 302 63 75 325 300 267 247 249 253 290 292 261 164 168 170 175 141 170 227 197 165 168 161 172 220 242 260 296 260 221 289 35 17 320 299 280 265 266 273
325 319 300 322 318 329 344 124 356 246 254 277 222 230 207 185 221 244 187 166 169 168 184 212 61 180 177 172 182 193 228 221 248 291 247 270 202 48 11 39 42 26 352 304 282
328 325 319 316 253 343 253 341 334 245 280 259 222 243 161 154 224 206 192 182 166 192 164 222 162 138 177 203 205 237 210 226 227 236 249 318 258 41 355 35 21 15 6 352 328
324 324 316 312 332 285 4 325 316 202 284 142 169 117 153 188 136 201 176 180 189 163 182 179 170 172 205 223 194 222 179 214 213 218 248 163 241 7 359 360 7 15 18 11 6
317 319 315 183 161 287 316 316 201 211 246 277 149 165 158 214 197 126 163 166 138 152 214 221 185 188 195 161 190 146 117 93 110 175 216 96 254 47 10 343 358 12 21 19 16
318 320 307 277 322 319 318 267 188 224 344 179 179 175 190 186 194 174 170 179 177 171 202 196 209 197 190 209 191 193 175 159 187 187 142 35 132 41 7 10 354 358 9 16 23
301 294 219 231 303 341 312 211 217 202 231 320 317 325 195 165 210 178 169 178 191 159 160 202 202 203 187 212 204 183 202 198 175 190 133 111 127 97 357 338 354 20 30 30 37
298 252 262 220 217 29 258 216 210 223 312 283 302 251 199 206 203 180 187 190 185 177 162 184 243 182 195 157 181 155 203 70 107 74 143 101 111 209 259 347 24 43 52 47 39
211 275 254 196 154 133 223 255 269 307 339 343 281 360 229 198 194 196 175 188 180 191 177 181 201 181 147 132 67 231 137 160 126 164 140 139 167 131 165 8 32 49 50 44 43
191 278 25 141 182 102 204 244 266 280 310 332 338 317 15 1 274 196 183 156 183 183 203 158 258 135 162 208 165 149 165 68 97 353 194 155 169 143 162 14 33 39 38 41 43
182 215 114 158 200 196 206 182 217 277 269 299 296 301 7 341 317 219 184 205 192 164 185 191 139 195 91 346 268 27 157 157 201 171 63 331 120 137 134 87 50 50 50 47 43
181 289 135 10 227 231 249 226 221 245 268 297 293 34 7 326 322 276 216 205 164 168 169 172 206 162 140 146 138 150 99 99 100 116 166 208 144 152 145 123 95 79 57 44 38
213 217 97 216 309 297 230 238 222 228 256 270 293 301 327 329 284 312 341 37 199 184 158 140 145 198 176 127 118 137 144 154 127 180 157 183 148 169 168 141 115 89 70 55 38
190 223 196 206 232 239 256 284 223 237 223 245 249 246 324 321 331 37 23 332 97 137 127 153 181 153 42 123 108 102 139 156 153 143 199 161 167 163 166 138 93 93 86 65 44
245 204 197 285 228 216 227 229 208 224 241 222 241 239 291 273 281 299 308 284 229 153 164 136 152 129 71 107 130 103 89 117 118 117 86 131 132 133 121 115 99 83 75 58 43
234 94 262 222 215 197 225 226 226 228 243 238 255 265 258 281 297 299 286 249 261 306 145 151 139 155 138 139 154 124 48 69 100 95 145 162 145 146 131 128 105 111 69 42 22